Regional Weather Roundup
Issued by NWS Sterling, VA

Home | Current Version | Previous Version | Graphics & Text | Print | Product List | Glossary On
Versions: 1 2 3 4 5 6 7 8 9 10 11 12 13 14 15 16 17 18 19 20 21 22 23 24 25 26 27 28
000
ASUS41 KLWX 010610
RWRLWX

REGIONAL WEATHER ROUNDUP
NATIONAL WEATHER SERVICE BALTIMORE MD/WASHINGTON DC
200 AM EDT SAT OCT 01 2016

Note: "FAIR" indicates few or no clouds below 12,000 feet
with no significant weather and/or obstructions to visibility.
 TC=TEMPERATURE CELSIUS

 * =Non NWS site. Station does not report precipitation (e.g. rain,
    snow, etc.), thunder, or fog.

DCZ001-MDZ009-015-VAZ040>042-051-053>054-010700-
WASHINGTON METRO

CITY           SKY/WX    TMP DP  RH WIND       PRES   REMARKS
WASHINGTON NAT LGT RAIN  64  64 100 NE10      30.12F FOG
DULLES         DRIZZLE   62  61  96 E10       30.11F
ANDREWS AFB    CLOUDY    63  61  94 E14       30.11S FOG
FT BELVOIR     CLOUDY    64  63  94 VRB3      30.10S
QUANTICO       LGT RAIN  66  64  93 NE9       30.10F
LEESBURG*      CLOUDY    63  63 100 NE8       30.13F FOG
MANASSAS*      CLOUDY    64  64 100 CALM      30.11R
GAITHERSBURG*  CLOUDY    61 N/A N/A E8        30.16F

$$

MDZ006>007-011-014-010700-
BALTIMORE METRO

CITY           SKY/WX    TMP DP  RH WIND       PRES   REMARKS
BWI AIRPORT    CLOUDY    62  60  93 E17       30.14S
MD SCIENCE CTR   N/A     63  58  83 MISG      30.15S
ANNAPOLIS      LGT RAIN  65  63  93 NE8       30.12F FOG
FORT MEADE*    CLOUDY    61  59  94 NE8G16    30.16S

$$

MDZ012-015-019>023-010700-
MARYLAND EASTERN SHORE

CITY           SKY/WX    TMP DP  RH WIND       PRES   REMARKS
OCEAN CITY     CLOUDY    68  68 100 NE8       30.11F
SALISBURY      CLOUDY    68  68 100 NE10      30.11S FOG
BAY BRIDGE AP* CLOUDY    64  63  94 MISG      30.13S

$$

MDZ017>025-010700-
SOUTHERN MARYLAND

CITY           SKY/WX    TMP DP  RH WIND       PRES   REMARKS
PATUXENT RIVER LGT RAIN  68  66  93 E12       30.09F
ST INIGOES     LGT RAIN  70  68  93 NE7       30.09S
LEONARDTOWN*   CLOUDY    64  64 100 E3        30.12S

$$

MDZ003>005-010700-
NORTH CENTRAL MARYLAND

CITY           SKY/WX    TMP DP  RH WIND       PRES   REMARKS
FREDERICK*     NOT AVBL
HAGERSTOWN APT CLOUDY    59  56  89 NE10      30.14F

$$

MDZ501>502-010700-
WESTERN MARYLAND

CITY           SKY/WX    TMP DP  RH WIND       PRES   REMARKS
OAKLAND*       FOG       50  50 100 E15G22    30.13S VSB 1/2
CUMBERLAND*    CLOUDY    59  59 100 CALM      30.18F

$$

VAZ025>031-010700-
SHENANDOAH VALLEY

CITY           SKY/WX    TMP DP  RH WIND       PRES   REMARKS
WINCHESTER*    CLOUDY    59  59 100 N3        30.13S FOG
FRONT ROYAL*   CLOUDY    59  59 100 CALM      30.11F
LURAY*         RAIN     N/A N/A N/A NE8       30.11S
NEW MARKET*    CLOUDY   N/A N/A N/A N7        30.11R
STAUNTON*      LGT RAIN  57  56  97 N3        30.13S
WAYNESBORO*    CLOUDY    57  56  95 N6        30.11F

$$

WVZ021-048>050-054>055-010700-
EASTERN WEST VIRGINIA PANHANDLE

CITY           SKY/WX    TMP DP  RH WIND       PRES   REMARKS
MARTINSBURG    LGT RAIN  58  57  97 N6        30.14S FOG
PETERSBURG*    DRIZZLE   58  57  97 CALM      30.13F

$$

VAZ036>039-050-010700-
CENTRAL FOOTHILLS

CITY           SKY/WX    TMP DP  RH WIND       PRES   REMARKS
CHARLOTTESVILL LGT RAIN  63  61  93 N9        30.08S
CULPEPER*      DRIZZLE   64  64 100 CALM      30.11S
ORANGE*        HVY RAIN  63  63 100 N7        30.10S
GORDONSVILLE*  CLOUDY    63  63 100 NE7       30.08S FOG
WARRENTON*     RAIN      64  60  86 NE5       30.10S

$$

VAZ055>057-010700-
NORTH AND CENTRAL PIEDMONT

CITY           SKY/WX    TMP DP  RH WIND       PRES   REMARKS
FREDERICKSBRG* DRIZZLE   66  66 100 NE7       30.08S
STAFFORD*      LGT RAIN  64  64 100 E5        30.13S

$$

NCZ024-NYZ072-PAZ021-071-VAZ022-071-010700-
OTHER REGIONAL OBSERVATIONS

CITY           SKY/WX    TMP DP  RH WIND       PRES   REMARKS
NEW YORK CITY  CLOUDY    56  53  90 NE9G16    30.26S
PHILADELPHIA   CLOUDY    59  57  93 NE14      30.19F FOG
PITTSBURGH     CLOUDY    56  56 100 E8        30.09S
ROANOKE        CLOUDY    63  60  90 N7        30.09S
RICHMOND       CLOUDY    72  71  97 E9        30.05S
RALEIGH        MOCLDY    72  70  93 S3        30.03F

$$

ANZ530>537-010700-
MARINE OBSERVATIONS

STATION/POSITION TIME  TEMP    WIND        PRES
                       AIR SEA DIR/SP/G
                 (UTC) (F)     (DEG/KT/KT) (MB)
THOMAS PT LIGHT  0600   64 71   60/ 14/ 16 1021.2F
BALT KEY BRIDGE  0548   63      60/ 14/ 16 1020.7F
COVE POINT       0548   67     100/  8/ 12 1019.9F
LEWISETTA        0548   71 71  100/ 14/ 16 1018.3F
SOLOMONS ISLAND  0548   68 73   70/ 11/ 14   N/A
PINEY POINT      0548           90/ 10/ 12   N/A

$$





USA.gov is the U.S. government's official web portal to all federal, state and local government web resources and services.